Location: Ostrava
(49.8330°N, 18.2830°E)
Time: 23:02:25
(UTC+02:00)

Envisat - Pass Details

Date: 22 January 2022
Orbit: 764 x 765 km, 98.2° (Epoch: 21 May)

Event Time Altitude Azimuth Distance (km) Brightness Sun altitude
Rises 04:24:25 0° 17° (NNE) 3,242 6.5 -30.0°
Reaches altitude 10° 04:26:48 10° 23° (NNE) 2,312 5.8 -29.6°
Maximum altitude 04:31:47 52° 100° (E) 944 3.7 -28.8°
Drops below altitude 10° 04:36:43 10° 177° (S) 2,296 5.5 -28.0°
Sets 04:39:04 0° 182° (S) 3,217 6.2 -27.6°
